Brno, Czech Republic

5:40 AM CEST on September 26, 2016 (GMT +0200)
Turany

Weather History for LKTB - March, 2013

Change the Weather History Date:

Friday, March 1, 2013

  Actual Average Record
Temperature  
Mean Temperature 36 °F -  
Max Temperature 39 °F - - ()
Min Temperature 33 °F - - ()
Degree Days  
Heating Degree Days 29    
Moisture  
Dew Point 29 °F    
Average Humidity 72    
Maximum Humidity 81    
Minimum Humidity 43    
Precipitation  
Precipitation 0.00 in - - ()
Sea Level Pressure  
Sea Level Pressure 30.10 in    
Wind  
Wind Speed 7 mph ()    
Max Wind Speed 16 mph    
Max Gust Speed -    
Visibility 5.8 miles    
Events      
T = Trace of Precipitation, MM = Missing Value Source: Averaged Metar Reports

Daily Weather History Graph

Daily Weather History Graph

Search for Another Location

Airport or City:

Trip Planner

Search our weather history database for the weather conditions in past years. The results will help you decide how hot, cold, wet, or windy it might be!

Date:

Astronomy

Mar. 01, 2013 Rise Set
Actual Time 6:35 AM CET 5:36 PM CET
Civil Twilight 6:03 AM CET 6:08 PM CET
Nautical Twilight 5:26 AM CET 6:45 PM CET
Astronomical Twilight 4:50 AM CET 7:22 PM CET
Moon 10:18 PM CET (3/1) 7:46 AM CET (3/1)
Length of Visible Light 12h 04m
Length of Day
11h 00m
Waning Gibbous, 85% of the Moon is Illuminated
Mar 1
Waning Gibbous
Mar 4
Last Quarter
Mar 11
New
Mar 19
First Quarter
Mar 27
Full

Hourly Weather History & Observations

Time (CET) Temp. Windchill Dew Point Humidity Pressure Visibility Wind Dir Wind Speed Gust Speed Precip Events Conditions
12:00 AM 37.4 °F - 32.0 °F 81% 30.15 in 4.3 mi Variable 2.3 mph - N/A   Overcast
12:30 AM 37.4 °F 34.9 °F 32.0 °F 81% 30.12 in 3.7 mi West 3.5 mph - N/A   Overcast
1:00 AM 38 °F - 31 °F 69% 30.17 in 4 mi WSW 4.5 mph - -   Mist
1:00 AM 37.4 °F 34.9 °F 32.0 °F 81% 30.12 in 3.7 mi West 3.5 mph - N/A   Overcast
1:30 AM 37.4 °F 32.8 °F 32.0 °F 81% 30.12 in 3.7 mi NW 5.8 mph - N/A   Overcast
2:00 AM 37.4 °F 32.1 °F 32.0 °F 81% 30.09 in 4.3 mi WNW 6.9 mph - N/A   Overcast
2:30 AM 37.4 °F 32.8 °F 32.0 °F 81% 30.09 in 3.7 mi NW 5.8 mph - N/A   Overcast
3:00 AM 37.4 °F 32.1 °F 32.0 °F 81% 30.09 in 3.7 mi NW 6.9 mph - N/A   Overcast
3:30 AM 37.4 °F 32.8 °F 32.0 °F 81% 30.09 in 3.7 mi WNW 5.8 mph - N/A   Overcast
4:00 AM 37.4 °F 33.8 °F 32.0 °F 81% 30.09 in 3.7 mi WNW 4.6 mph - N/A   Overcast
4:30 AM 37.4 °F 30.8 °F 30.2 °F 75% 30.09 in 5.0 mi WNW 9.2 mph - N/A   Overcast
5:00 AM 37.4 °F 30.3 °F 30.2 °F 75% 30.09 in 5.0 mi WNW 10.4 mph - N/A   Overcast
5:30 AM 37.4 °F 30.3 °F 30.2 °F 75% 30.09 in 5.6 mi West 10.4 mph - N/A   Overcast
6:00 AM 35.6 °F 28.6 °F 30.2 °F 81% 30.09 in 5.6 mi West 9.2 mph - N/A   Overcast
6:30 AM 35.6 °F 28.6 °F 30.2 °F 81% 30.09 in 5.6 mi WNW 9.2 mph - N/A   Overcast
7:00 AM 36 °F - 29 °F 69% 30.13 in 6 mi NW 11.2 mph - -   Overcast
7:00 AM 35.6 °F 28.0 °F 30.2 °F 81% 30.09 in 6.2 mi NW 10.4 mph - N/A   Overcast
7:30 AM 35.6 °F 28.0 °F 30.2 °F 81% 30.09 in 6.2 mi NW 10.4 mph - N/A   Overcast
8:00 AM 35.6 °F 28.6 °F 30.2 °F 81% 30.09 in 6.2 mi WNW 9.2 mph - N/A   Overcast
8:30 AM 35.6 °F 29.2 °F 28.4 °F 75% 30.09 in 6.2 mi NW 8.1 mph - N/A   Overcast
9:00 AM 35.6 °F 28.6 °F 28.4 °F 75% 30.09 in 6.2 mi WNW 9.2 mph - N/A   Overcast
9:30 AM 35.6 °F 28.0 °F 28.4 °F 75% 30.09 in 6.2 mi WNW 10.4 mph - N/A   Overcast
10:00 AM 35.6 °F 28.0 °F 28.4 °F 75% 30.09 in 6.2 mi NW 10.4 mph - N/A   Overcast
10:30 AM 37.4 °F 30.8 °F 28.4 °F 70% 30.09 in 6.2 mi NW 9.2 mph - N/A   Overcast
11:00 AM 37.4 °F 31.4 °F 28.4 °F 70% 30.09 in 6.2 mi NW 8.1 mph - N/A   Overcast
11:30 AM 37.4 °F 32.8 °F 30.2 °F 75% 30.09 in 6.2 mi NW 5.8 mph - N/A   Overcast
12:00 PM 37.4 °F 32.1 °F 30.2 °F 75% 30.09 in 6.2 mi NW 6.9 mph - N/A   Overcast
12:30 PM 37.4 °F 32.1 °F 30.2 °F 75% 30.09 in 6.2 mi WNW 6.9 mph - N/A   Overcast
1:00 PM 38 °F - 29 °F 62% 30.12 in 12 mi WNW 11.2 mph - -   Overcast
1:00 PM 39.2 °F 32.5 °F 30.2 °F 70% 30.06 in 6.2 mi West 10.4 mph - N/A   Overcast
1:30 PM 39.2 °F 32.5 °F 30.2 °F 70% 30.06 in 6.2 mi NW 10.4 mph - N/A   Overcast
2:00 PM 39.2 °F 32.5 °F 28.4 °F 65% 30.06 in 6.2 mi WNW 10.4 mph - N/A   Overcast
2:30 PM 39.2 °F 32.0 °F 30.2 °F 70% 30.06 in 6.2 mi WNW 11.5 mph - N/A   Overcast
3:00 PM 39.2 °F 33.0 °F 28.4 °F 65% 30.06 in 6.2 mi NNW 9.2 mph - N/A   Overcast
3:30 PM 37.4 °F 31.4 °F 28.4 °F 70% 30.06 in 6.2 mi NNW 8.1 mph - N/A   Overcast
4:00 PM 37.4 °F 30.8 °F 26.6 °F 65% 30.06 in 6.2 mi NNW 9.2 mph - N/A   Overcast
4:30 PM 37.4 °F 30.8 °F 26.6 °F 65% 30.06 in 6.2 mi NNW 9.2 mph - N/A   Overcast
5:00 PM 37.4 °F 30.3 °F 26.6 °F 65% 30.06 in 6.2 mi NNW 10.4 mph - N/A   Mostly Cloudy
5:30 PM 37.4 °F 29.8 °F 24.8 °F 60% 30.06 in 6.2 mi NNW 11.5 mph - N/A   Mostly Cloudy
6:00 PM 37.4 °F 31.4 °F 26.6 °F 65% 30.06 in 6.2 mi NNW 8.1 mph - N/A   Mostly Cloudy
6:30 PM 37.4 °F 32.1 °F 26.6 °F 65% 30.09 in 6.2 mi NW 6.9 mph - N/A   Mostly Cloudy
7:00 PM 37 °F - 22 °F 43% 30.16 in 22 mi NNW 15.7 mph - -   Overcast
7:00 PM 37.4 °F 28.5 °F 24.8 °F 60% 30.09 in 6.2 mi NNW 15.0 mph - N/A   Mostly Cloudy
7:30 PM 35.6 °F 26.6 °F 23.0 °F 60% 30.09 in 6.2 mi NW 13.8 mph - N/A   Mostly Cloudy
8:00 PM 35.6 °F 27.5 °F 24.8 °F 65% 30.09 in 6.2 mi NW 11.5 mph - N/A   Overcast
8:30 PM 35.6 °F 28.6 °F 24.8 °F 65% 30.12 in 6.2 mi NW 9.2 mph - N/A   Mostly Cloudy
9:00 PM 35.6 °F 29.2 °F 24.8 °F 65% 30.12 in 6.2 mi WNW 8.1 mph - N/A   Scattered Clouds
9:30 PM 33.8 °F 26.4 °F 24.8 °F 70% 30.12 in 6.2 mi NW 9.2 mph - N/A   Scattered Clouds
10:00 PM 33.8 °F 25.8 °F 24.8 °F 70% 30.12 in 6.2 mi NW 10.4 mph - N/A   Scattered Clouds
10:30 PM 33.8 °F 25.8 °F 24.8 °F 70% 30.15 in 6.2 mi NW 10.4 mph - N/A   Scattered Clouds
11:00 PM 33.8 °F 23.9 °F 26.6 °F 75% 30.15 in 6.2 mi NNW 15.0 mph - N/A   Scattered Clouds
11:30 PM 33.8 °F 25.3 °F 24.8 °F 70% 30.15 in 6.2 mi NW 11.5 mph - N/A   Scattered Clouds